When you browse on this site, cookies collect data to enhance your experience and personalize the content and advertising you see.
Visit our Privacy Policy to learn more. By continuing to use the site, you agree to this use of cookies and data.
  • En España
  • Lista de países
  • Para 7 días
  • Temperatura del agua
  • Mapa Satelital
  • El tiempo en el mapa
  • Informadores
  • user-avatar
    Iniciar sesión

    Tiempo cada hora Agartala

    Hoy, 22 Febrero, Viernes

    Tiempo Temperatura Precipitaciones Viento Presión Humedad
    00:00 +22°C° 0 mm 1 mps 759 mmHg 60%
    01:00 +22°C° 0 mm 1 mps 759 mmHg 61%
    02:00 +21°C° 0 mm 1 mps 759 mmHg 63%
    03:00 +21°C° 0 mm 1 mps 758 mmHg 64%
    04:00 +21°C° 0 mm 1 mps 758 mmHg 65%
    05:00 +18°C° 0 mm 0 mps 759 mmHg 67%
    06:00 +18°C° 0 mm 0 mps 759 mmHg 68%
    07:00 +23°C° 0 mm 1 mps 759 mmHg 61%
    08:00 +26°C° 0 mm 1 mps 759 mmHg 54%
    09:00 +29°C° 0 mm 1 mps 760 mmHg 46%
    10:00 +31°C° 0 mm 1 mps 759 mmHg 42%
    11:00 +32°C° 0 mm 2 mps 759 mmHg 37%
    12:00 +35°C° 0 mm 3 mps 759 mmHg 33%
    13:00 +35°C° 0 mm 3 mps 758 mmHg 32%
    14:00 +36°C° 0 mm 3 mps 757 mmHg 31%
    15:00 +36°C° 0 mm 4 mps 756 mmHg 30%
    16:00 +34°C° 0 mm 3 mps 756 mmHg 34%
    17:00 +32°C° 0 mm 2 mps 756 mmHg 38%
    18:00 +30°C° 0 mm 1 mps 756 mmHg 42%
    19:00 +29°C° 0 mm 1 mps 756 mmHg 46%
    20:00 +27°C° 0 mm 2 mps 757 mmHg 51%
    21:00 +26°C° 0 mm 2 mps 757 mmHg 56%
    22:00 +25°C° 0 mm 2 mps 757 mmHg 62%
    23:00 +24°C° 0 mm 2 mps 757 mmHg 67%

    Mañana, 23 Febrero, Sábado

    Tiempo Temperatura Precipitaciones Viento Presión Humedad
    00:00 +23°C° 0 mm 2 mps 757 mmHg 73%
    01:00 +23°C° 0 mm 2 mps 756 mmHg 76%
    02:00 +21°C° 0 mm 2 mps 756 mmHg 78%
    03:00 +22°C° 0 mm 1 mps 755 mmHg 81%
    04:00 +21°C° 0 mm 2 mps 755 mmHg 83%
    05:00 +20°C° 0 mm 2 mps 755 mmHg 85%
    06:00 +20°C° 0 mm 2 mps 756 mmHg 86%
    07:00 +23°C° 0 mm 2 mps 756 mmHg 78%
    08:00 +26°C° 0 mm 2 mps 756 mmHg 69%
    09:00 +28°C° 0 mm 2 mps 757 mmHg 61%
    10:00 +31°C° 0 mm 2 mps 757 mmHg 51%
    11:00 +34°C° 0 mm 3 mps 756 mmHg 41%
    12:00 +37°C° 0 mm 3 mps 756 mmHg 32%
    13:00 +37°C° 0 mm 4 mps 755 mmHg 29%
    14:00 +37°C° 0 mm 4 mps 754 mmHg 27%
    15:00 +39°C° 0 mm 5 mps 753 mmHg 25%
    16:00 +36°C° 0 mm 4 mps 753 mmHg 28%
    17:00 +34°C° 0 mm 3 mps 753 mmHg 32%
    18:00 +31°C° 0 mm 2 mps 754 mmHg 35%
    19:00 +30°C° 0 mm 2 mps 754 mmHg 39%
    20:00 +28°C° 0 mm 1 mps 755 mmHg 44%
    21:00 +27°C° 0 mm 1 mps 755 mmHg 49%
    22:00 +26°C° 0 mm 1 mps 755 mmHg 58%
    23:00 +25°C° 0 mm 1 mps 755 mmHg 67%

    Pasado mañana, 24 Febrero, Domingo

    Tiempo Temperatura Precipitaciones Viento Presión Humedad
    00:00 +25°C° 0 mm 1 mps 756 mmHg 76%
    01:00 +24°C° 0 mm 1 mps 755 mmHg 78%
    02:00 +24°C° 0 mm 1 mps 755 mmHg 79%
    03:00 +23°C° 0 mm 1 mps 755 mmHg 81%
    04:00 +23°C° 0 mm 1 mps 755 mmHg 79%
    05:00 +22°C° 0 mm 1 mps 755 mmHg 77%
    06:00 +22°C° 0 mm 1 mps 755 mmHg 75%
    07:00 +25°C° 0 mm 1 mps 756 mmHg 63%
    08:00 +27°C° 0 mm 1 mps 757 mmHg 50%
    09:00 +30°C° 0 mm 1 mps 757 mmHg 38%
    10:00 +31°C° 0 mm 2 mps 757 mmHg 32%
    11:00 +34°C° 0 mm 2 mps 757 mmHg 26%
    12:00 +36°C° 0 mm 3 mps 756 mmHg 20%
    13:00 +36°C° 0 mm 3 mps 756 mmHg 20%
    14:00 +36°C° 0 mm 4 mps 755 mmHg 20%
    15:00 +37°C° 0 mm 4 mps 754 mmHg 20%
    16:00 +34°C° 0 mm 3 mps 754 mmHg 23%
    17:00 +31°C° 0 mm 2 mps 754 mmHg 26%
    18:00 +29°C° 0 mm 2 mps 754 mmHg 29%
    19:00 +28°C° 0 mm 1 mps 755 mmHg 29%
    20:00 +28°C° 0 mm 1 mps 756 mmHg 30%
    21:00 +25°C° 0 mm 0 mps 756 mmHg 30%
    22:00 +24°C° 0 mm 0 mps 756 mmHg 31%
    23:00 +23°C° 0 mm 0 mps 756 mmHg 33%

    25 Febrero, Lunes

    Tiempo Temperatura Precipitaciones Viento Presión Humedad
    00:00 +22°C° 0 mm 0 mps 756 mmHg 34%
    01:00 +24°C° 0 mm 1 mps 756 mmHg 35%
    02:00 +24°C° 0 mm 1 mps 755 mmHg 36%
    03:00 +23°C° 0 mm 1 mps 755 mmHg 37%
    04:00 +21°C° 0 mm 0 mps 755 mmHg 38%
    05:00 +21°C° 0 mm 0 mps 756 mmHg 39%
    06:00 +20°C° 0 mm 0 mps 756 mmHg 40%
    07:00 +23°C° 0 mm 1 mps 757 mmHg 39%
    08:00 +24°C° 0 mm 1 mps 758 mmHg 38%
    09:00 +25°C° 0 mm 2 mps 759 mmHg 37%
    10:00 +28°C° 0 mm 2 mps 758 mmHg 34%
    11:00 +30°C° 0 mm 2 mps 758 mmHg 31%
    12:00 +34°C° 0 mm 3 mps 758 mmHg 28%
    13:00 +34°C° 0 mm 3 mps 757 mmHg 27%
    14:00 +34°C° 0 mm 3 mps 756 mmHg 26%
    15:00 +35°C° 0 mm 3 mps 755 mmHg 26%
    16:00 +33°C° 0 mm 3 mps 756 mmHg 30%
    17:00 +31°C° 0 mm 2 mps 756 mmHg 35%
    18:00 +29°C° 0 mm 2 mps 756 mmHg 39%
    19:00 +28°C° 0 mm 2 mps 756 mmHg 45%
    20:00 +26°C° 0 mm 2 mps 756 mmHg 51%
    21:00 +24°C° 0 mm 1 mps 757 mmHg 57%
    22:00 +24°C° 0 mm 2 mps 757 mmHg 58%
    23:00 +24°C° 0 mm 2 mps 757 mmHg 59%

    26 Febrero, Martes

    Tiempo Temperatura Precipitaciones Viento Presión Humedad
    00:00 +24°C° 0 mm 2 mps 757 mmHg 60%
    01:00 +24°C° 0 mm 2 mps 757 mmHg 64%
    02:00 +23°C° 0 mm 1 mps 757 mmHg 68%
    03:00 +23°C° 0 mm 1 mps 757 mmHg 71%
    04:00 +23°C° 0 mm 1 mps 757 mmHg 74%
    05:00 +22°C° 0 mm 1 mps 757 mmHg 76%
    06:00 +20°C° 0 mm 0 mps 757 mmHg 78%
    07:00 +22°C° 0 mm 0 mps 758 mmHg 72%
    08:00 +25°C° 0 mm 1 mps 759 mmHg 66%
    09:00 +27°C° 0 mm 1 mps 760 mmHg 60%
    10:00 +27°C° 0 mm 1 mps 760 mmHg 58%
    11:00 +27°C° 0 mm 2 mps 759 mmHg 55%
    12:00 +28°C° 0 mm 3 mps 759 mmHg 53%
    13:00 +28°C° 0 mm 2 mps 758 mmHg 50%
    14:00 +28°C° 0 mm 2 mps 757 mmHg 47%
    15:00 +29°C° 0 mm 1 mps 756 mmHg 45%
    16:00 +28°C° 0 mm 1 mps 756 mmHg 46%
    17:00 +27°C° 0 mm 1 mps 756 mmHg 47%
    18:00 +26°C° 0 mm 1 mps 756 mmHg 48%
    19:00 +26°C° 0 mm 1 mps 756 mmHg 51%
    20:00 +25°C° 0 mm 1 mps 757 mmHg 53%
    21:00 +25°C° 0 mm 1 mps 758 mmHg 55%
    22:00 +24°C° 1.5 mm 2 mps 758 mmHg 65%
    23:00 +23°C° 1.5 mm 2 mps 758 mmHg 74%

    27 Febrero, Miércoles

    Tiempo Temperatura Precipitaciones Viento Presión Humedad
    00:00 +21°C° 1.5 mm 2 mps 758 mmHg 84%
    01:00 +21°C° 0.4 mm 2 mps 757 mmHg 85%
    02:00 +20°C° 0.4 mm 2 mps 757 mmHg 85%
    03:00 +20°C° 0.4 mm 2 mps 757 mmHg 86%
    04:00 +20°C° 0.1 mm 2 mps 757 mmHg 84%
    05:00 +20°C° 0.1 mm 2 mps 757 mmHg 82%
    06:00 +19°C° 0.1 mm 3 mps 757 mmHg 81%
    07:00 +20°C° 0.3 mm 3 mps 758 mmHg 81%
    08:00 +20°C° 0.3 mm 4 mps 758 mmHg 82%
    09:00 +20°C° 0.3 mm 4 mps 759 mmHg 83%
    10:00 +22°C° 0 mm 4 mps 759 mmHg 75%
    11:00 +23°C° 0 mm 5 mps 759 mmHg 66%
    12:00 +26°C° 0 mm 5 mps 758 mmHg 58%
    13:00 +27°C° 0 mm 5 mps 757 mmHg 55%
    14:00 +28°C° 0 mm 5 mps 757 mmHg 52%
    15:00 +28°C° 0 mm 4 mps 756 mmHg 49%
    16:00 +27°C° 0 mm 4 mps 756 mmHg 54%
    17:00 +26°C° 0 mm 3 mps 756 mmHg 59%
    18:00 +25°C° 0 mm 3 mps 756 mmHg 64%
    19:00 +24°C° 0.3 mm 3 mps 756 mmHg 67%
    20:00 +22°C° 0.3 mm 3 mps 756 mmHg 71%
    21:00 +21°C° 0.3 mm 3 mps 757 mmHg 75%
    22:00 +21°C° 0.1 mm 3 mps 756 mmHg 77%
    23:00 +20°C° 0.1 mm 3 mps 756 mmHg 79%
    Mostrar más